Time,TemperatureF,DewpointF,PressureIn,WindDirection,WindDirectionDegrees,WindSpeedMPH,WindSpeedGustMPH,Humidity,HourlyPrecipIn,Conditions,Clouds,dailyrainin,SoftwareType,DateUTC
2013-03-17 00:00:00,66.0,60.7,29.80,SSE,152,4.2,11.0,83,0.00,,,0.00,WUHU216DAVISVP2,2013-03-17 05:00:00,
2013-03-17 00:05:00,65.9,60.6,29.80,SE,139,6.3,11.0,83,0.00,,,0.00,WUHU216DAVISVP2,2013-03-17 05:05:00,
2013-03-17 00:10:00,65.9,60.6,29.80,South,173,3.2,10.0,83,0.00,,,0.00,WUHU216DAVISVP2,2013-03-17 05:10:00,
2013-03-17 00:15:00,65.9,60.6,29.80,SSE,156,3.2,10.0,83,0.00,,,0.00,WUHU216DAVISVP2,2013-03-17 05:15:00,
2013-03-17 00:20:00,65.9,61.0,29.80,SSE,156,4.2,9.4,84,0.00,,,0.00,WUHU216DAVISVP2,2013-03-17 05:20:00,
2013-03-17 00:25:00,65.9,61.0,29.80,SSE,158,4.2,9.4,84,0.00,,,0.00,WUHU216DAVISVP2,2013-03-17 05:25:00,
2013-03-17 00:30:00,65.9,60.6,29.79,SSE,158,6.3,9.4,83,0.00,,,0.00,WUHU216DAVISVP2,2013-03-17 05:30:00,
2013-03-17 00:35:00,66.0,60.7,29.79,South,170,9.4,14.7,83,0.00,,,0.00,WUHU216DAVISVP2,2013-03-17 05:35:00,
2013-03-17 00:40:00,66.1,60.8,29.79,SSE,149,8.4,14.7,83,0.00,,,0.00,WUHU216DAVISVP2,2013-03-17 05:40:00,
2013-03-17 00:45:00,66.1,60.8,29.79,SSE,154,6.3,14.0,83,0.00,,,0.00,WUHU216DAVISVP2,2013-03-17 05:45:00,
2013-03-17 00:50:00,66.1,60.8,29.79,SSE,161,9.4,14.0,83,0.00,,,0.00,WUHU216DAVISVP2,2013-03-17 05:50:00,
2013-03-17 00:55:00,66.0,60.7,29.78,SSE,149,5.3,13.6,83,0.00,,,0.00,WUHU216DAVISVP2,2013-03-17 05:55:00,
2013-03-17 01:00:00,65.9,60.9,29.78,SE,143,4.2,13.6,84,0.00,,,0.00,WUHU216DAVISVP2,2013-03-17 06:00:00,
2013-03-17 01:05:00,65.8,60.8,29.79,SSE,159,4.2,13.0,84,0.00,,,0.00,WUHU216DAVISVP2,2013-03-17 06:05:00,
2013-03-17 01:10:00,65.5,60.6,29.79,SSE,162,5.3,13.0,84,0.00,,,0.00,WUHU216DAVISVP2,2013-03-17 06:10:00,
2013-03-17 01:15:00,65.3,60.7,29.78,SSE,151,4.2,10.0,85,0.00,,,0.00,WUHU216DAVISVP2,2013-03-17 06:15:00,
2013-03-17 01:20:00,65.1,60.5,29.78,SSE,153,6.3,10.0,85,0.00,,,0.00,WUHU216DAVISVP2,2013-03-17 06:20:00,
2013-03-17 01:25:00,65.3,60.7,29.78,South,183,8.4,9.4,85,0.00,,,0.00,WUHU216DAVISVP2,2013-03-17 06:25:00,
2013-03-17 01:30:00,65.4,60.8,29.78,SSE,159,7.3,9.4,85,0.00,,,0.00,WUHU216DAVISVP2,2013-03-17 06:30:00,
2013-03-17 01:35:00,65.4,60.8,29.78,SSE,162,4.2,9.0,85,0.00,,,0.00,WUHU216DAVISVP2,2013-03-17 06:35:00,
2013-03-17 01:40:00,65.4,60.8,29.78,SE,135,8.4,9.4,85,0.00,,,0.00,WUHU216DAVISVP2,2013-03-17 06:40:00,
2013-03-17 01:45:00,65.4,60.8,29.78,SSE,152,3.2,10.5,85,0.00,,,0.00,WUHU216DAVISVP2,2013-03-17 06:45:00,
2013-03-17 01:50:00,65.5,60.9,29.78,SSE,158,8.4,10.5,85,0.00,,,0.00,WUHU216DAVISVP2,2013-03-17 06:50:00,
2013-03-17 01:55:00,65.7,61.1,29.78,South,173,10.5,11.6,85,0.00,,,0.00,WUHU216DAVISVP2,2013-03-17 06:55:00,
2013-03-17 02:00:00,65.8,61.2,29.78,SSE,149,5.3,11.6,85,0.00,,,0.00,WUHU216DAVISVP2,2013-03-17 07:00:00,
2013-03-17 02:05:00,65.9,61.0,29.78,South,178,8.4,11.0,84,0.00,,,0.00,WUHU216DAVISVP2,2013-03-17 07:05:00,
2013-03-17 02:10:00,65.9,61.0,29.78,SSE,168,4.2,11.0,84,0.00,,,0.00,WUHU216DAVISVP2,2013-03-17 07:10:00,
2013-03-17 02:15:00,65.9,61.0,29.78,SE,133,6.3,10.5,84,0.00,,,0.00,WUHU216DAVISVP2,2013-03-17 07:15:00,
2013-03-17 02:20:00,66.0,61.1,29.78,SSE,149,6.3,10.0,84,0.00,,,0.00,WUHU216DAVISVP2,2013-03-17 07:20:00,
2013-03-17 02:25:00,66.0,61.1,29.78,SSE,160,5.3,10.0,84,0.00,,,0.00,WUHU216DAVISVP2,2013-03-17 07:25:00,
2013-03-17 02:30:00,66.0,61.1,29.78,SSE,155,3.2,9.4,84,0.00,,,0.00,WUHU216DAVISVP2,2013-03-17 07:30:00,
2013-03-17 02:35:00,66.0,61.0,29.77,South,172,4.2,10.0,84,0.00,,,0.00,WUHU216DAVISVP2,2013-03-17 07:35:00,
2013-03-17 02:40:00,66.0,61.1,29.77,SSE,158,3.2,10.0,84,0.00,,,0.00,WUHU216DAVISVP2,2013-03-17 07:40:00,
2013-03-17 02:45:00,65.9,61.0,29.77,SSE,166,2.1,10.0,84,0.00,,,0.00,WUHU216DAVISVP2,2013-03-17 07:45:00,
2013-03-17 02:50:00,65.9,61.3,29.77,SE,143,4.2,8.0,85,0.00,,,0.00,WUHU216DAVISVP2,2013-03-17 07:50:00,
2013-03-17 02:55:00,65.9,61.3,29.77,SSE,167,3.2,9.4,85,0.00,,,0.00,WUHU216DAVISVP2,2013-03-17 07:55:00,
2013-03-17 03:00:00,65.9,61.3,29.76,SSE,156,4.2,9.4,85,0.00,,,0.00,WUHU216DAVISVP2,2013-03-17 08:00:00,
2013-03-17 03:05:00,65.9,61.3,29.76,SSE,147,7.3,10.0,85,0.00,,,0.00,WUHU216DAVISVP2,2013-03-17 08:05:00,
2013-03-17 03:10:00,65.9,61.3,29.76,SE,135,3.2,10.0,85,0.00,,,0.00,WUHU216DAVISVP2,2013-03-17 08:10:00,
2013-03-17 03:15:00,65.9,61.3,29.76,SSE,158,2.1,10.0,85,0.00,,,0.00,WUHU216DAVISVP2,2013-03-17 08:15:00,
2013-03-17 03:20:00,65.9,61.3,29.76,SE,143,2.1,10.0,85,0.00,,,0.00,WUHU216DAVISVP2,2013-03-17 08:20:00,
2013-03-17 03:25:00,65.8,61.2,29.76,SSE,154,4.2,9.4,85,0.00,,,0.00,WUHU216DAVISVP2,2013-03-17 08:25:00,
2013-03-17 03:30:00,65.8,61.2,29.76,SE,139,4.2,9.4,85,0.00,,,0.00,WUHU216DAVISVP2,2013-03-17 08:30:00,
2013-03-17 03:35:00,65.8,61.2,29.75,SE,137,3.2,9.0,85,0.00,,,0.00,WUHU216DAVISVP2,2013-03-17 08:35:00,
2013-03-17 03:40:00,65.8,61.2,29.75,SE,145,2.1,8.4,85,0.00,,,0.00,WUHU216DAVISVP2,2013-03-17 08:40:00,
2013-03-17 03:45:00,65.7,61.4,29.75,SSE,149,3.2,8.0,86,0.00,,,0.00,WUHU216DAVISVP2,2013-03-17 08:45:00,
2013-03-17 03:50:00,65.6,61.3,29.75,SSE,158,3.2,7.0,86,0.00,,,0.00,WUHU216DAVISVP2,2013-03-17 08:50:00,
2013-03-17 03:55:00,65.5,61.2,29.75,SSE,165,2.1,7.0,86,0.00,,,0.00,WUHU216DAVISVP2,2013-03-17 08:55:00,
2013-03-17 04:00:00,65.5,61.2,29.74,SSE,161,4.2,7.0,86,0.00,,,0.00,WUHU216DAVISVP2,2013-03-17 09:00:00,
2013-03-17 04:05:00,65.4,61.1,29.74,SE,145,6.3,7.0,86,0.00,,,0.00,WUHU216DAVISVP2,2013-03-17 09:05:00,
2013-03-17 04:10:00,65.5,61.2,29.74,SSE,164,5.3,6.3,86,0.00,,,0.00,WUHU216DAVISVP2,2013-03-17 09:10:00,
2013-03-17 04:15:00,65.5,61.2,29.74,SE,144,3.2,6.3,86,0.00,,,0.00,WUHU216DAVISVP2,2013-03-17 09:15:00,
2013-03-17 04:20:00,65.5,61.2,29.74,SSE,149,2.1,7.3,86,0.00,,,0.00,WUHU216DAVISVP2,2013-03-17 09:20:00,
2013-03-17 04:25:00,65.5,61.2,29.74,SSE,152,2.1,7.3,86,0.00,,,0.00,WUHU216DAVISVP2,2013-03-17 09:25:00,
2013-03-17 04:30:00,65.5,61.2,29.74,SSE,153,2.1,7.0,86,0.00,,,0.00,WUHU216DAVISVP2,2013-03-17 09:30:00,
2013-03-17 04:35:00,65.6,61.3,29.74,SE,133,4.2,7.0,86,0.00,,,0.00,WUHU216DAVISVP2,2013-03-17 09:35:00,
2013-03-17 04:40:00,65.6,61.3,29.74,SSE,158,2.1,8.4,86,0.00,,,0.00,WUHU216DAVISVP2,2013-03-17 09:40:00,
2013-03-17 04:45:00,65.6,61.3,29.74,SSE,152,2.1,8.4,86,0.00,,,0.00,WUHU216DAVISVP2,2013-03-17 09:45:00,
2013-03-17 04:50:00,65.6,61.3,29.74,SE,146,3.2,8.0,86,0.00,,,0.00,WUHU216DAVISVP2,2013-03-17 09:50:00,
2013-03-17 04:55:00,65.6,61.3,29.74,SE,135,2.1,6.0,86,0.00,,,0.00,WUHU216DAVISVP2,2013-03-17 09:55:00,
2013-03-17 05:00:00,65.6,61.3,29.73,SSE,149,6.3,7.0,86,0.00,,,0.00,WUHU216DAVISVP2,2013-03-17 10:00:00,
2013-03-17 05:05:00,65.6,61.3,29.74,SE,146,3.2,7.3,86,0.00,,,0.00,WUHU216DAVISVP2,2013-03-17 10:05:00,
2013-03-17 05:10:00,65.6,61.3,29.73,SSE,156,3.2,7.3,86,0.00,,,0.00,WUHU216DAVISVP2,2013-03-17 10:10:00,
2013-03-17 05:15:00,65.6,61.3,29.73,SE,132,4.2,7.0,86,0.00,,,0.00,WUHU216DAVISVP2,2013-03-17 10:15:00,
2013-03-17 05:20:00,65.6,61.3,29.73,SSE,166,2.1,6.0,86,0.00,,,0.00,WUHU216DAVISVP2,2013-03-17 10:20:00,
2013-03-17 05:25:00,65.6,61.3,29.73,SE,142,4.2,5.3,86,0.00,,,0.00,WUHU216DAVISVP2,2013-03-17 10:25:00,
2013-03-17 05:30:00,65.5,61.2,29.73,SSE,149,3.2,5.3,86,0.00,,,0.00,WUHU216DAVISVP2,2013-03-17 10:30:00,
2013-03-17 05:35:00,65.4,61.1,29.73,SE,141,3.2,5.3,86,0.00,,,0.00,WUHU216DAVISVP2,2013-03-17 10:35:00,
2013-03-17 05:40:00,65.5,61.2,29.73,SE,144,2.1,5.3,86,0.00,,,0.00,WUHU216DAVISVP2,2013-03-17 10:40:00,
2013-03-17 05:45:00,65.5,61.2,29.73,SE,143,2.1,5.3,86,0.00,,,0.00,WUHU216DAVISVP2,2013-03-17 10:45:00,
2013-03-17 05:50:00,65.6,61.3,29.73,SE,140,3.2,5.3,86,0.00,,,0.00,WUHU216DAVISVP2,2013-03-17 10:50:00,
2013-03-17 05:55:00,65.6,61.3,29.73,SE,137,1.0,5.3,86,0.00,,,0.00,WUHU216DAVISVP2,2013-03-17 10:55:00,
2013-03-17 06:00:00,65.6,61.3,29.73,SSE,150,4.2,5.3,86,0.00,,,0.00,WUHU216DAVISVP2,2013-03-17 11:00:00,
2013-03-17 06:05:00,65.6,61.3,29.73,SE,145,3.2,5.3,86,0.00,,,0.00,WUHU216DAVISVP2,2013-03-17 11:05:00,
2013-03-17 06:10:00,65.6,61.3,29.73,South,181,2.1,5.3,86,0.00,,,0.00,WUHU216DAVISVP2,2013-03-17 11:10:00,
2013-03-17 06:15:00,65.7,61.4,29.73,SSE,147,5.3,5.3,86,0.00,,,0.00,WUHU216DAVISVP2,2013-03-17 11:15:00,
2013-03-17 06:20:00,65.7,61.4,29.73,SE,141,2.1,6.3,86,0.00,,,0.00,WUHU216DAVISVP2,2013-03-17 11:20:00,
2013-03-17 06:25:00,65.8,61.5,29.73,SE,139,4.2,6.3,86,0.00,,,0.00,WUHU216DAVISVP2,2013-03-17 11:25:00,
2013-03-17 06:30:00,65.8,61.5,29.73,SSE,153,5.3,6.3,86,0.00,,,0.00,WUHU216DAVISVP2,2013-03-17 11:30:00,
2013-03-17 06:35:00,65.9,61.6,29.73,SE,137,4.2,6.0,86,0.00,,,0.00,WUHU216DAVISVP2,2013-03-17 11:35:00,
2013-03-17 06:40:00,65.9,61.6,29.73,SE,146,5.3,6.0,86,0.00,,,0.00,WUHU216DAVISVP2,2013-03-17 11:40:00,
2013-03-17 06:45:00,65.9,61.6,29.73,SE,124,4.2,6.3,86,0.00,,,0.00,WUHU216DAVISVP2,2013-03-17 11:45:00,
2013-03-17 06:50:00,65.8,61.5,29.73,SSE,156,0.0,6.3,86,0.00,,,0.00,WUHU216DAVISVP2,2013-03-17 11:50:00,
2013-03-17 06:55:00,65.8,61.5,29.73,SSE,149,3.2,6.0,86,0.00,,,0.00,WUHU216DAVISVP2,2013-03-17 11:55:00,
2013-03-17 07:00:00,65.8,61.5,29.73,SE,141,4.2,7.3,86,0.00,,,0.00,WUHU216DAVISVP2,2013-03-17 12:00:00,
2013-03-17 07:05:00,65.8,61.5,29.73,SSE,161,2.1,7.3,86,0.00,,,0.00,WUHU216DAVISVP2,2013-03-17 12:05:00,
2013-03-17 07:10:00,65.8,61.5,29.74,SSE,159,2.1,7.3,86,0.00,,,0.00,WUHU216DAVISVP2,2013-03-17 12:10:00,
2013-03-17 07:15:00,65.8,61.5,29.74,SSE,149,0.0,7.0,86,0.00,,,0.00,WUHU216DAVISVP2,2013-03-17 12:15:00,
2013-03-17 07:20:00,65.9,61.6,29.74,SSE,164,1.0,6.3,86,0.00,,,0.00,WUHU216DAVISVP2,2013-03-17 12:20:00,
2013-03-17 07:25:00,65.9,61.6,29.74,SE,132,4.2,6.0,86,0.00,,,0.00,WUHU216DAVISVP2,2013-03-17 12:25:00,
2013-03-17 07:30:00,65.9,61.6,29.74,SSE,151,2.1,6.0,86,0.00,,,0.00,WUHU216DAVISVP2,2013-03-17 12:30:00,
2013-03-17 07:35:00,65.9,61.6,29.74,SSE,153,3.2,5.3,86,0.00,,,0.00,WUHU216DAVISVP2,2013-03-17 12:35:00,
2013-03-17 07:40:00,65.9,61.6,29.75,SSE,156,1.0,5.3,86,0.00,,,0.00,WUHU216DAVISVP2,2013-03-17 12:40:00,
2013-03-17 07:45:00,65.9,61.6,29.74,SSE,163,2.1,5.3,86,0.00,,,0.00,WUHU216DAVISVP2,2013-03-17 12:45:00,
2013-03-17 07:50:00,65.9,61.3,29.75,SSE,153,1.0,5.3,85,0.00,,,0.00,WUHU216DAVISVP2,2013-03-17 12:50:00,
2013-03-17 07:55:00,65.9,61.6,29.75,SSE,164,2.1,5.3,86,0.00,,,0.00,WUHU216DAVISVP2,2013-03-17 12:55:00,
2013-03-17 08:00:00,66.0,61.4,29.75,South,172,2.1,5.3,85,0.00,,,0.00,WUHU216DAVISVP2,2013-03-17 13:00:00,
2013-03-17 08:05:00,66.0,61.4,29.75,South,176,2.1,5.3,85,0.00,,,0.00,WUHU216DAVISVP2,2013-03-17 13:05:00,
2013-03-17 08:10:00,66.1,61.5,29.75,SSE,158,2.1,5.0,85,0.00,,,0.00,WUHU216DAVISVP2,2013-03-17 13:10:00,
2013-03-17 08:15:00,66.2,61.6,29.75,South,176,2.1,5.0,85,0.00,,,0.00,WUHU216DAVISVP2,2013-03-17 13:15:00,
2013-03-17 08:20:00,66.2,61.6,29.75,South,172,1.0,4.0,85,0.00,,,0.00,WUHU216DAVISVP2,2013-03-17 13:20:00,
2013-03-17 08:25:00,66.3,61.7,29.75,SSE,156,3.2,4.2,85,0.00,,,0.00,WUHU216DAVISVP2,2013-03-17 13:25:00,
2013-03-17 08:30:00,66.5,61.9,29.75,South,183,3.2,6.0,85,0.00,,,0.00,WUHU216DAVISVP2,2013-03-17 13:30:00,
2013-03-17 08:35:00,66.6,61.6,29.76,SSE,153,2.1,6.0,84,0.00,,,0.00,WUHU216DAVISVP2,2013-03-17 13:35:00,
2013-03-17 08:40:00,66.8,61.8,29.75,SSE,155,3.2,6.0,84,0.00,,,0.00,WUHU216DAVISVP2,2013-03-17 13:40:00,
2013-03-17 08:45:00,66.9,61.9,29.76,SSE,150,2.1,6.0,84,0.00,,,0.00,WUHU216DAVISVP2,2013-03-17 13:45:00,
2013-03-17 08:50:00,67.1,61.8,29.76,SE,145,2.1,6.3,83,0.00,,,0.00,WUHU216DAVISVP2,2013-03-17 13:50:00,
2013-03-17 08:55:00,67.3,62.0,29.76,SSE,147,3.2,7.3,83,0.00,,,0.00,WUHU216DAVISVP2,2013-03-17 13:55:00,
2013-03-17 09:00:00,67.6,62.0,29.76,SSE,163,4.2,7.3,82,0.00,,,0.00,WUHU216DAVISVP2,2013-03-17 14:00:00,
2013-03-17 09:05:00,67.7,62.1,29.75,SSW,205,2.1,8.4,82,0.00,,,0.00,WUHU216DAVISVP2,2013-03-17 14:05:00,
2013-03-17 09:10:00,67.9,61.9,29.75,South,173,6.3,9.4,81,0.00,,,0.00,WUHU216DAVISVP2,2013-03-17 14:10:00,
2013-03-17 09:15:00,68.2,62.2,29.75,SSE,151,3.2,9.4,81,0.00,,,0.00,WUHU216DAVISVP2,2013-03-17 14:15:00,
2013-03-17 09:20:00,68.4,62.1,29.76,SSE,164,4.2,9.4,80,0.00,,,0.00,WUHU216DAVISVP2,2013-03-17 14:20:00,
2013-03-17 09:25:00,68.5,62.2,29.76,SE,139,3.2,9.4,80,0.00,,,0.00,WUHU216DAVISVP2,2013-03-17 14:25:00,
2013-03-17 09:30:00,68.6,62.3,29.76,South,173,3.2,9.0,80,0.00,,,0.00,WUHU216DAVISVP2,2013-03-17 14:30:00,
2013-03-17 09:35:00,68.8,61.8,29.75,SSE,159,5.3,9.0,78,0.00,,,0.00,WUHU216DAVISVP2,2013-03-17 14:35:00,
2013-03-17 09:40:00,69.0,62.0,29.75,SE,143,4.2,9.4,78,0.00,,,0.00,WUHU216DAVISVP2,2013-03-17 14:40:00,
2013-03-17 09:45:00,69.2,62.2,29.76,SE,141,7.3,9.4,78,0.00,,,0.00,WUHU216DAVISVP2,2013-03-17 14:45:00,
2013-03-17 09:50:00,69.3,61.9,29.76,South,188,3.2,9.0,77,0.00,,,0.00,WUHU216DAVISVP2,2013-03-17 14:50:00,
2013-03-17 09:55:00,69.3,61.9,29.76,SSE,166,4.2,9.0,77,0.00,,,0.00,WUHU216DAVISVP2,2013-03-17 14:55:00,
2013-03-17 10:00:00,69.2,61.8,29.76,SSE,155,3.2,7.3,77,0.00,,,0.00,WUHU216DAVISVP2,2013-03-17 15:00:00,
2013-03-17 10:05:00,69.3,61.9,29.76,SSE,147,5.3,9.4,77,0.00,,,0.00,WUHU216DAVISVP2,2013-03-17 15:05:00,
2013-03-17 10:10:00,69.5,61.7,29.76,South,172,5.3,9.4,76,0.00,,,0.00,WUHU216DAVISVP2,2013-03-17 15:10:00,
2013-03-17 10:15:00,69.6,61.8,29.76,South,178,5.3,9.0,76,0.00,,,0.00,WUHU216DAVISVP2,2013-03-17 15:15:00,
2013-03-17 10:20:00,69.7,62.3,29.77,SSE,165,3.2,9.4,77,0.00,,,0.00,WUHU216DAVISVP2,2013-03-17 15:20:00,
2013-03-17 10:25:00,69.8,62.0,29.77,SSE,153,1.0,11.0,76,0.00,,,0.00,WUHU216DAVISVP2,2013-03-17 15:25:00,
2013-03-17 10:30:00,70.0,61.8,29.77,SE,145,7.3,11.0,75,0.00,,,0.00,WUHU216DAVISVP2,2013-03-17 15:30:00,
2013-03-17 10:35:00,70.1,61.9,29.77,South,179,4.2,11.0,75,0.00,,,0.00,WUHU216DAVISVP2,2013-03-17 15:35:00,
2013-03-17 10:40:00,70.1,61.9,29.77,SSE,159,3.2,11.6,75,0.00,,,0.00,WUHU216DAVISVP2,2013-03-17 15:40:00,
2013-03-17 10:45:00,70.2,62.0,29.77,SSE,151,9.4,12.6,75,0.00,,,0.00,WUHU216DAVISVP2,2013-03-17 15:45:00,
2013-03-17 10:50:00,70.3,62.1,29.77,South,179,4.2,12.6,75,0.00,,,0.00,WUHU216DAVISVP2,2013-03-17 15:50:00,
2013-03-17 10:55:00,70.6,62.1,29.77,SSE,165,5.3,12.0,74,0.00,,,0.00,WUHU216DAVISVP2,2013-03-17 15:55:00,
2013-03-17 11:00:00,70.8,62.3,29.77,SSE,168,3.2,12.0,74,0.00,,,0.00,WUHU216DAVISVP2,2013-03-17 16:00:00,
2013-03-17 11:05:00,71.2,62.1,29.77,SSE,160,4.2,10.0,73,0.00,,,0.00,WUHU216DAVISVP2,2013-03-17 16:05:00,
2013-03-17 11:10:00,71.4,62.3,29.77,South,179,5.3,11.0,73,0.00,,,0.00,WUHU216DAVISVP2,2013-03-17 16:10:00,
2013-03-17 11:15:00,71.6,62.1,29.77,South,189,2.1,11.0,72,0.00,,,0.00,WUHU216DAVISVP2,2013-03-17 16:15:00,
2013-03-17 11:20:00,71.8,62.3,29.77,SSE,156,2.1,11.0,72,0.00,,,0.00,WUHU216DAVISVP2,2013-03-17 16:20:00,
2013-03-17 11:25:00,72.0,61.7,29.77,South,169,4.2,11.0,70,0.00,,,0.00,WUHU216DAVISVP2,2013-03-17 16:25:00,
2013-03-17 11:30:00,71.9,61.6,29.77,SW,219,4.2,9.4,70,0.00,,,0.00,WUHU216DAVISVP2,2013-03-17 16:30:00,
2013-03-17 11:35:00,71.8,61.9,29.76,SSE,163,4.2,9.4,71,0.00,,,0.00,WUHU216DAVISVP2,2013-03-17 16:35:00,
2013-03-17 11:40:00,71.9,62.6,29.76,SE,143,4.2,9.4,72,0.00,,,0.00,WUHU216DAVISVP2,2013-03-17 16:40:00,
2013-03-17 11:45:00,72.1,62.4,29.76,SE,124,5.3,9.0,71,0.00,,,0.00,WUHU216DAVISVP2,2013-03-17 16:45:00,
2013-03-17 11:50:00,72.4,62.2,29.76,SE,141,1.0,9.0,70,0.00,,,0.00,WUHU216DAVISVP2,2013-03-17 16:50:00,
2013-03-17 11:55:00,72.9,62.7,29.76,SW,227,4.2,8.0,70,0.00,,,0.00,WUHU216DAVISVP2,2013-03-17 16:55:00,
2013-03-17 12:00:00,74.0,63.0,29.76,SE,145,4.2,7.3,68,0.00,,,0.00,WUHU216DAVISVP2,2013-03-17 17:00:00,
2013-03-17 12:05:00,75.1,63.2,29.76,SE,144,3.2,8.4,66,0.00,,,0.00,WUHU216DAVISVP2,2013-03-17 17:05:00,
2013-03-17 12:10:00,75.8,62.5,29.76,WSW,241,1.0,8.4,63,0.00,,,0.00,WUHU216DAVISVP2,2013-03-17 17:10:00,
2013-03-17 12:15:00,76.0,62.7,29.76,SSE,159,0.0,8.0,63,0.00,,,0.00,WUHU216DAVISVP2,2013-03-17 17:15:00,
2013-03-17 12:20:00,76.3,62.5,29.75,South,176,1.0,8.0,62,0.00,,,0.00,WUHU216DAVISVP2,2013-03-17 17:20:00,
2013-03-17 12:25:00,76.6,62.4,29.75,SW,215,3.2,7.3,61,0.00,,,0.00,WUHU216DAVISVP2,2013-03-17 17:25:00,
2013-03-17 12:30:00,76.0,62.3,29.76,West,260,0.0,7.3,62,0.00,,,0.00,WUHU216DAVISVP2,2013-03-17 17:30:00,
2013-03-17 12:35:00,75.8,62.1,29.76,WSW,253,0.0,7.0,62,0.00,,,0.00,WUHU216DAVISVP2,2013-03-17 17:35:00,
2013-03-17 12:40:00,75.9,62.6,29.76,SSW,209,0.0,5.0,63,0.00,,,0.00,WUHU216DAVISVP2,2013-03-17 17:40:00,
2013-03-17 12:45:00,76.1,61.9,29.76,SW,235,4.2,5.0,61,0.00,,,0.00,WUHU216DAVISVP2,2013-03-17 17:45:00,
2013-03-17 12:50:00,76.7,62.5,29.76,SW,228,1.0,6.3,61,0.00,,,0.00,WUHU216DAVISVP2,2013-03-17 17:50:00,
2013-03-17 12:55:00,76.7,62.0,29.76,WNW,299,0.0,6.3,60,0.00,,,0.00,WUHU216DAVISVP2,2013-03-17 17:55:00,
2013-03-17 13:00:00,77.0,62.0,29.75,South,180,1.0,6.0,60,0.00,,,0.00,WUHU216DAVISVP2,2013-03-17 18:00:00,
2013-03-17 13:05:00,77.7,62.2,29.75,SW,217,2.1,6.3,59,0.00,,,0.00,WUHU216DAVISVP2,2013-03-17 18:05:00,
2013-03-17 13:10:00,78.1,62.1,29.74,SE,143,1.0,7.0,58,0.00,,,0.00,WUHU216DAVISVP2,2013-03-17 18:10:00,
2013-03-17 13:15:00,77.8,61.8,29.74,SE,135,5.3,7.0,58,0.00,,,0.00,WUHU216DAVISVP2,2013-03-17 18:15:00,
2013-03-17 13:20:00,77.7,62.4,29.74,SSW,196,5.3,7.0,59,0.00,,,0.00,WUHU216DAVISVP2,2013-03-17 18:20:00,
2013-03-17 13:25:00,78.2,61.9,29.74,SE,141,4.2,7.3,57,0.00,,,0.00,WUHU216DAVISVP2,2013-03-17 18:25:00,
2013-03-17 13:30:00,78.0,62.2,29.73,South,186,7.3,7.3,58,0.00,,,0.00,WUHU216DAVISVP2,2013-03-17 18:30:00,
2013-03-17 13:35:00,79.2,62.3,29.72,South,170,5.3,9.0,56,0.00,,,0.00,WUHU216DAVISVP2,2013-03-17 18:35:00,
2013-03-17 13:40:00,79.9,63.0,29.72,ESE,112,2.1,9.0,56,0.00,,,0.00,WUHU216DAVISVP2,2013-03-17 18:40:00,
2013-03-17 13:45:00,80.4,62.4,29.71,South,174,4.2,10.5,54,0.00,,,0.00,WUHU216DAVISVP2,2013-03-17 18:45:00,
2013-03-17 13:50:00,80.5,62.5,29.72,SW,216,2.1,10.5,54,0.00,,,0.00,WUHU216DAVISVP2,2013-03-17 18:50:00,
2013-03-17 13:55:00,80.7,62.1,29.71,South,169,4.2,11.6,53,0.00,,,0.00,WUHU216DAVISVP2,2013-03-17 18:55:00,
2013-03-17 14:00:00,80.9,62.2,29.71,South,178,2.1,11.6,53,0.00,,,0.00,WUHU216DAVISVP2,2013-03-17 19:00:00,
2013-03-17 14:05:00,80.5,62.3,29.70,South,170,3.2,11.0,54,0.00,,,0.00,WUHU216DAVISVP2,2013-03-17 19:05:00,
2013-03-17 14:10:00,80.9,62.2,29.70,WSW,237,1.0,11.0,53,0.00,,,0.00,WUHU216DAVISVP2,2013-03-17 19:10:00,
2013-03-17 14:15:00,81.5,63.4,29.70,SSW,209,3.2,8.0,54,0.00,,,0.00,WUHU216DAVISVP2,2013-03-17 19:15:00,
2013-03-17 14:20:00,81.8,63.2,29.69,SSW,208,2.1,8.0,53,0.00,,,0.00,WUHU216DAVISVP2,2013-03-17 19:20:00,
2013-03-17 14:25:00,82.6,62.8,29.69,SSE,156,4.2,9.4,51,0.00,,,0.00,WUHU216DAVISVP2,2013-03-17 19:25:00,
2013-03-17 14:30:00,82.3,61.9,29.68,North,8,0.0,9.4,50,0.00,,,0.00,WUHU216DAVISVP2,2013-03-17 19:30:00,
2013-03-17 14:35:00,82.4,62.6,29.68,West,266,1.0,9.0,51,0.00,,,0.00,WUHU216DAVISVP2,2013-03-17 19:35:00,
2013-03-17 14:40:00,82.5,62.1,29.68,SW,214,2.1,9.0,50,0.00,,,0.00,WUHU216DAVISVP2,2013-03-17 19:40:00,
2013-03-17 14:45:00,82.4,62.0,29.68,SSE,165,8.4,8.4,50,0.00,,,0.00,WUHU216DAVISVP2,2013-03-17 19:45:00,
2013-03-17 14:50:00,82.6,62.6,29.67,SSE,164,2.1,9.4,51,0.00,,,0.00,WUHU216DAVISVP2,2013-03-17 19:50:00,
2013-03-17 14:55:00,83.4,62.2,29.67,South,169,2.1,9.4,49,0.00,,,0.00,WUHU216DAVISVP2,2013-03-17 19:55:00,
2013-03-17 15:00:00,83.5,61.8,29.67,SSE,168,4.2,9.4,48,0.00,,,0.00,WUHU216DAVISVP2,2013-03-17 20:00:00,
2013-03-17 15:05:00,83.4,61.7,29.67,South,172,4.2,9.4,48,0.00,,,0.00,WUHU216DAVISVP2,2013-03-17 20:05:00,
2013-03-17 15:10:00,83.6,61.3,29.66,SE,129,5.3,9.0,47,0.00,,,0.00,WUHU216DAVISVP2,2013-03-17 20:10:00,
2013-03-17 15:15:00,83.7,61.4,29.66,SE,143,0.0,9.0,47,0.00,,,0.00,WUHU216DAVISVP2,2013-03-17 20:15:00,
2013-03-17 15:20:00,84.5,61.5,29.65,SSE,162,7.3,8.0,46,0.00,,,0.00,WUHU216DAVISVP2,2013-03-17 20:20:00,
2013-03-17 15:25:00,84.5,60.2,29.65,WSW,248,1.0,8.0,44,0.00,,,0.00,WUHU216DAVISVP2,2013-03-17 20:25:00,
2013-03-17 15:30:00,84.6,61.0,29.65,South,179,3.2,7.3,45,0.00,,,0.00,WUHU216DAVISVP2,2013-03-17 20:30:00,
2013-03-17 15:35:00,84.9,60.6,29.65,SSW,208,2.1,7.3,44,0.00,,,0.00,WUHU216DAVISVP2,2013-03-17 20:35:00,
2013-03-17 15:40:00,85.2,60.8,29.64,SSW,199,0.0,7.3,44,0.00,,,0.00,WUHU216DAVISVP2,2013-03-17 20:40:00,
2013-03-17 15:45:00,85.2,60.9,29.64,South,170,4.2,7.0,44,0.00,,,0.00,WUHU216DAVISVP2,2013-03-17 20:45:00,
2013-03-17 15:50:00,85.4,59.7,29.64,South,181,5.3,10.5,42,0.00,,,0.00,WUHU216DAVISVP2,2013-03-17 20:50:00,
2013-03-17 15:55:00,85.4,61.0,29.63,SSE,158,5.3,10.5,44,0.00,,,0.00,WUHU216DAVISVP2,2013-03-17 20:55:00,
2013-03-17 16:00:00,85.7,60.0,29.63,SSE,158,2.1,10.0,42,0.00,,,0.00,WUHU216DAVISVP2,2013-03-17 21:00:00,
2013-03-17 16:05:00,86.1,59.6,29.63,South,170,2.1,10.0,41,0.00,,,0.00,WUHU216DAVISVP2,2013-03-17 21:05:00,
2013-03-17 16:10:00,86.4,59.9,29.63,West,261,2.1,8.4,41,0.00,,,0.00,WUHU216DAVISVP2,2013-03-17 21:10:00,
2013-03-17 16:15:00,86.8,59.5,29.63,SSW,198,2.1,8.4,40,0.00,,,0.00,WUHU216DAVISVP2,2013-03-17 21:15:00,
2013-03-17 16:20:00,86.6,59.4,29.63,WSW,257,0.0,8.0,40,0.00,,,0.00,WUHU216DAVISVP2,2013-03-17 21:20:00,
2013-03-17 16:25:00,86.9,59.7,29.63,SSE,159,5.3,8.0,40,0.00,,,0.00,WUHU216DAVISVP2,2013-03-17 21:25:00,
2013-03-17 16:30:00,86.3,59.1,29.63,South,176,4.2,10.0,40,0.00,,,0.00,WUHU216DAVISVP2,2013-03-17 21:30:00,
2013-03-17 16:35:00,85.2,59.5,29.63,SSE,165,1.0,10.0,42,0.00,,,0.00,WUHU216DAVISVP2,2013-03-17 21:35:00,
2013-03-17 16:40:00,85.6,59.9,29.62,SE,129,3.2,10.0,42,0.00,,,0.00,WUHU216DAVISVP2,2013-03-17 21:40:00,
2013-03-17 16:45:00,86.0,59.5,29.62,SE,142,4.2,10.0,41,0.00,,,0.00,WUHU216DAVISVP2,2013-03-17 21:45:00,
2013-03-17 16:50:00,86.4,59.9,29.62,SE,135,4.2,8.0,41,0.00,,,0.00,WUHU216DAVISVP2,2013-03-17 21:50:00,
2013-03-17 16:55:00,86.4,59.9,29.62,SE,142,6.3,9.4,41,0.00,,,0.00,WUHU216DAVISVP2,2013-03-17 21:55:00,
2013-03-17 17:00:00,86.5,60.7,29.61,SE,141,1.0,9.4,42,0.00,,,0.00,WUHU216DAVISVP2,2013-03-17 22:00:00,
2013-03-17 17:05:00,86.9,59.6,29.61,SSE,166,0.0,9.0,40,0.00,,,0.00,WUHU216DAVISVP2,2013-03-17 22:05:00,
2013-03-17 17:10:00,86.9,59.7,29.61,SE,135,1.0,9.0,40,0.00,,,0.00,WUHU216DAVISVP2,2013-03-17 22:10:00,
2013-03-17 17:15:00,86.8,59.6,29.61,SE,135,2.1,8.0,40,0.00,,,0.00,WUHU216DAVISVP2,2013-03-17 22:15:00,
2013-03-17 17:20:00,87.0,59.0,29.61,South,185,0.0,9.4,39,0.00,,,0.00,WUHU216DAVISVP2,2013-03-17 22:20:00,
2013-03-17 17:25:00,87.0,59.7,29.61,SSW,197,2.1,9.4,40,0.00,,,0.00,WUHU216DAVISVP2,2013-03-17 22:25:00,
2013-03-17 17:30:00,87.2,59.2,29.61,SSE,155,5.3,9.0,39,0.00,,,0.00,WUHU216DAVISVP2,2013-03-17 22:30:00,
2013-03-17 17:35:00,87.0,58.3,29.61,SE,145,3.2,8.4,38,0.00,,,0.00,WUHU216DAVISVP2,2013-03-17 22:35:00,
2013-03-17 17:40:00,86.9,58.2,29.60,SW,229,1.0,8.4,38,0.00,,,0.00,WUHU216DAVISVP2,2013-03-17 22:40:00,
2013-03-17 17:45:00,87.0,57.5,29.60,SSE,168,3.2,9.0,37,0.00,,,0.00,WUHU216DAVISVP2,2013-03-17 22:45:00,
2013-03-17 17:50:00,86.9,58.2,29.61,SSE,166,2.1,9.0,38,0.00,,,0.00,WUHU216DAVISVP2,2013-03-17 22:50:00,
2013-03-17 17:55:00,86.7,57.2,29.61,SSE,153,2.1,9.0,37,0.00,,,0.00,WUHU216DAVISVP2,2013-03-17 22:55:00,
2013-03-17 18:00:00,86.8,57.4,29.60,SSE,164,2.1,9.0,37,0.00,,,0.00,WUHU216DAVISVP2,2013-03-17 23:00:00,
2013-03-17 18:05:00,86.8,57.4,29.60,SW,220,0.0,6.0,37,0.00,,,0.00,WUHU216DAVISVP2,2013-03-17 23:05:00,
2013-03-17 18:10:00,87.0,57.6,29.60,SSE,162,2.1,6.0,37,0.00,,,0.00,WUHU216DAVISVP2,2013-03-17 23:10:00,
2013-03-17 18:15:00,86.9,57.5,29.61,SE,145,2.1,5.3,37,0.00,,,0.00,WUHU216DAVISVP2,2013-03-17 23:15:00,
2013-03-17 18:20:00,86.8,57.3,29.61,SSE,162,1.0,5.0,37,0.00,,,0.00,WUHU216DAVISVP2,2013-03-17 23:20:00,
2013-03-17 18:25:00,86.5,57.1,29.61,SSE,166,0.0,5.0,37,0.00,,,0.00,WUHU216DAVISVP2,2013-03-17 23:25:00,
2013-03-17 18:30:00,86.4,57.0,29.61,SE,134,2.1,5.0,37,0.00,,,0.00,WUHU216DAVISVP2,2013-03-17 23:30:00,
2013-03-17 18:35:00,86.3,56.9,29.61,SSE,168,1.0,5.0,37,0.00,,,0.00,WUHU216DAVISVP2,2013-03-17 23:35:00,
2013-03-17 18:40:00,86.2,56.8,29.61,SSE,166,2.1,5.3,37,0.00,,,0.00,WUHU216DAVISVP2,2013-03-17 23:40:00,
2013-03-17 18:45:00,85.9,57.3,29.61,South,178,0.0,5.3,38,0.00,,,0.00,WUHU216DAVISVP2,2013-03-17 23:45:00,
2013-03-17 18:50:00,86.0,57.4,29.61,South,178,1.0,5.0,38,0.00,,,0.00,WUHU216DAVISVP2,2013-03-17 23:50:00,
2013-03-17 18:55:00,85.9,57.3,29.61,South,178,0.0,5.0,38,0.00,,,0.00,WUHU216DAVISVP2,2013-03-17 23:55:00,
2013-03-17 19:00:00,85.4,56.8,29.61,South,178,1.0,4.0,38,0.00,,,0.00,WUHU216DAVISVP2,2013-03-18 00:00:00,
2013-03-17 19:05:00,85.1,57.3,29.61,SSE,153,1.0,2.1,39,0.00,,,0.00,WUHU216DAVISVP2,2013-03-18 00:05:00,
2013-03-17 19:10:00,84.8,57.0,29.61,South,171,0.0,2.1,39,0.00,,,0.00,WUHU216DAVISVP2,2013-03-18 00:10:00,
2013-03-17 19:15:00,84.4,57.4,29.61,South,171,0.0,2.1,40,0.00,,,0.00,WUHU216DAVISVP2,2013-03-18 00:15:00,
2013-03-17 19:20:00,83.9,57.6,29.61,South,171,0.0,2.1,41,0.00,,,0.00,WUHU216DAVISVP2,2013-03-18 00:20:00,
2013-03-17 19:25:00,83.4,57.2,29.61,South,171,0.0,2.0,41,0.00,,,0.00,WUHU216DAVISVP2,2013-03-18 00:25:00,
2013-03-17 19:30:00,82.7,57.2,29.61,South,171,0.0,2.0,42,0.00,,,0.00,WUHU216DAVISVP2,2013-03-18 00:30:00,
2013-03-17 19:35:00,82.1,57.4,29.60,South,171,0.0,2.0,43,0.00,,,0.00,WUHU216DAVISVP2,2013-03-18 00:35:00,
2013-03-17 19:40:00,81.6,56.9,29.61,South,171,0.0,2.0,43,0.00,,,0.00,WUHU216DAVISVP2,2013-03-18 00:40:00,
2013-03-17 19:45:00,81.3,57.3,29.60,SE,124,1.0,2.0,44,0.00,,,0.00,WUHU216DAVISVP2,2013-03-18 00:45:00,
2013-03-17 19:50:00,80.7,56.8,29.60,ESE,110,1.0,2.1,44,0.00,,,0.00,WUHU216DAVISVP2,2013-03-18 00:50:00,
2013-03-17 19:55:00,80.5,57.2,29.60,ESE,110,0.0,2.1,45,0.00,,,0.00,WUHU216DAVISVP2,2013-03-18 00:55:00,
2013-03-17 20:00:00,80.0,56.8,29.60,ESE,110,0.0,2.0,45,0.00,,,0.00,WUHU216DAVISVP2,2013-03-18 01:00:00,
2013-03-17 20:05:00,79.4,56.9,29.61,ESE,110,0.0,2.0,46,0.00,,,0.00,WUHU216DAVISVP2,2013-03-18 01:05:00,
2013-03-17 20:10:00,78.9,57.0,29.61,NE,45,1.0,2.1,47,0.00,,,0.00,WUHU216DAVISVP2,2013-03-18 01:10:00,
2013-03-17 20:15:00,78.4,57.2,29.61,NNE,12,1.0,2.1,48,0.00,,,0.00,WUHU216DAVISVP2,2013-03-18 01:15:00,
2013-03-17 20:20:00,78.0,56.8,29.61,NNE,15,1.0,3.2,48,0.00,,,0.00,WUHU216DAVISVP2,2013-03-18 01:20:00,
2013-03-17 20:25:00,77.7,57.1,29.62,NNE,15,0.0,3.2,49,0.00,,,0.00,WUHU216DAVISVP2,2013-03-18 01:25:00,
2013-03-17 20:30:00,77.1,56.5,29.62,NNE,15,0.0,3.0,49,0.00,,,0.00,WUHU216DAVISVP2,2013-03-18 01:30:00,
2013-03-17 20:35:00,76.3,56.4,29.63,SE,131,3.2,5.3,50,0.00,,,0.00,WUHU216DAVISVP2,2013-03-18 01:35:00,
2013-03-17 20:40:00,75.8,61.6,29.63,East,96,5.3,11.0,61,0.00,,,0.00,WUHU216DAVISVP2,2013-03-18 01:40:00,
2013-03-17 20:45:00,76.9,63.1,29.64,SSE,153,5.3,11.0,62,0.00,,,0.00,WUHU216DAVISVP2,2013-03-18 01:45:00,
2013-03-17 20:50:00,77.1,64.2,29.64,SE,139,11.6,12.6,64,0.00,,,0.00,WUHU216DAVISVP2,2013-03-18 01:50:00,
2013-03-17 20:55:00,76.8,64.8,29.64,ESE,115,8.4,14.7,66,0.00,,,0.00,WUHU216DAVISVP2,2013-03-18 01:55:00,
2013-03-17 21:00:00,76.4,64.9,29.64,SE,138,8.4,14.7,67,0.00,,,0.00,WUHU216DAVISVP2,2013-03-18 02:00:00,
2013-03-17 21:05:00,76.2,65.1,29.65,SE,136,5.3,15.0,68,0.00,,,0.00,WUHU216DAVISVP2,2013-03-18 02:05:00,
2013-03-17 21:10:00,75.8,64.7,29.65,SSE,151,7.3,15.0,68,0.00,,,0.00,WUHU216DAVISVP2,2013-03-18 02:10:00,
2013-03-17 21:15:00,75.4,65.1,29.64,SE,141,10.5,15.0,70,0.00,,,0.00,WUHU216DAVISVP2,2013-03-18 02:15:00,
2013-03-17 21:20:00,75.2,64.9,29.65,SE,139,7.3,14.7,70,0.00,,,0.00,WUHU216DAVISVP2,2013-03-18 02:20:00,
2013-03-17 21:25:00,74.8,65.0,29.65,SE,131,3.2,14.7,71,0.00,,,0.00,WUHU216DAVISVP2,2013-03-18 02:25:00,
2013-03-17 21:30:00,74.3,64.9,29.65,SE,140,9.4,14.0,72,0.00,,,0.00,WUHU216DAVISVP2,2013-03-18 02:30:00,
2013-03-17 21:35:00,73.9,64.9,29.66,ESE,120,5.3,13.0,73,0.00,,,0.00,WUHU216DAVISVP2,2013-03-18 02:35:00,
2013-03-17 21:40:00,73.7,65.1,29.66,SE,133,4.2,13.0,74,0.00,,,0.00,WUHU216DAVISVP2,2013-03-18 02:40:00,
2013-03-17 21:45:00,73.4,64.8,29.66,SSE,150,7.3,14.0,74,0.00,,,0.00,WUHU216DAVISVP2,2013-03-18 02:45:00,
2013-03-17 21:50:00,73.2,64.9,29.66,SE,133,4.2,14.0,75,0.00,,,0.00,WUHU216DAVISVP2,2013-03-18 02:50:00,
2013-03-17 21:55:00,72.9,64.7,29.66,SE,125,5.3,14.0,75,0.00,,,0.00,WUHU216DAVISVP2,2013-03-18 02:55:00,
2013-03-17 22:00:00,72.7,64.8,29.66,SE,132,6.3,11.0,76,0.00,,,0.00,WUHU216DAVISVP2,2013-03-18 03:00:00,
2013-03-17 22:05:00,72.5,64.6,29.67,SSE,147,4.2,10.0,76,0.00,,,0.00,WUHU216DAVISVP2,2013-03-18 03:05:00,
2013-03-17 22:10:00,72.2,64.7,29.67,SE,135,4.2,10.0,77,0.00,,,0.00,WUHU216DAVISVP2,2013-03-18 03:10:00,
2013-03-17 22:15:00,72.0,64.5,29.67,SE,140,4.2,9.0,77,0.00,,,0.00,WUHU216DAVISVP2,2013-03-18 03:15:00,
2013-03-17 22:20:00,71.7,64.6,29.68,SE,129,1.0,10.5,78,0.00,,,0.00,WUHU216DAVISVP2,2013-03-18 03:20:00,
2013-03-17 22:25:00,71.6,64.5,29.67,SE,135,3.2,10.5,78,0.00,,,0.00,WUHU216DAVISVP2,2013-03-18 03:25:00,
2013-03-17 22:30:00,71.3,64.4,29.67,ESE,114,3.2,10.0,79,0.00,,,0.00,WUHU216DAVISVP2,2013-03-18 03:30:00,
2013-03-17 22:35:00,71.0,64.2,29.67,SE,126,7.3,10.0,79,0.00,,,0.00,WUHU216DAVISVP2,2013-03-18 03:35:00,
2013-03-17 22:40:00,70.9,64.4,29.67,SE,135,4.2,10.0,80,0.00,,,0.00,WUHU216DAVISVP2,2013-03-18 03:40:00,
2013-03-17 22:45:00,70.6,64.5,29.68,SE,137,6.3,10.0,81,0.00,,,0.00,WUHU216DAVISVP2,2013-03-18 03:45:00,
2013-03-17 22:50:00,70.5,64.4,29.68,SE,129,7.3,11.6,81,0.00,,,0.00,WUHU216DAVISVP2,2013-03-18 03:50:00,
2013-03-17 22:55:00,70.3,64.5,29.68,SE,141,5.3,11.6,82,0.00,,,0.00,WUHU216DAVISVP2,2013-03-18 03:55:00,
2013-03-17 23:00:00,70.1,64.3,29.69,SE,126,5.3,11.0,82,0.00,,,0.00,WUHU216DAVISVP2,2013-03-18 04:00:00,
2013-03-17 23:05:00,69.8,64.1,29.68,ESE,122,3.2,11.0,82,0.00,,,0.00,WUHU216DAVISVP2,2013-03-18 04:05:00,
2013-03-17 23:10:00,69.5,64.1,29.68,SSE,153,3.2,11.0,83,0.00,,,0.00,WUHU216DAVISVP2,2013-03-18 04:10:00,
2013-03-17 23:15:00,69.4,64.4,29.68,ESE,108,7.3,11.0,84,0.00,,,0.00,WUHU216DAVISVP2,2013-03-18 04:15:00,
2013-03-17 23:20:00,69.3,64.3,29.68,SE,141,6.3,11.0,84,0.00,,,0.00,WUHU216DAVISVP2,2013-03-18 04:20:00,
2013-03-17 23:25:00,69.0,64.0,29.69,ESE,120,4.2,11.0,84,0.00,,,0.00,WUHU216DAVISVP2,2013-03-18 04:25:00,
2013-03-17 23:30:00,68.9,64.2,29.68,ESE,106,2.1,9.0,85,0.00,,,0.00,WUHU216DAVISVP2,2013-03-18 04:30:00,
2013-03-17 23:35:00,68.7,64.4,29.69,ESE,119,5.3,8.0,86,0.00,,,0.00,WUHU216DAVISVP2,2013-03-18 04:35:00,
2013-03-17 23:40:00,68.6,64.3,29.69,SE,129,2.1,7.3,86,0.00,,,0.00,WUHU216DAVISVP2,2013-03-18 04:40:00,
2013-03-17 23:45:00,68.6,64.3,29.69,SE,128,3.2,7.3,86,0.00,,,0.00,WUHU216DAVISVP2,2013-03-18 04:45:00,
2013-03-17 23:50:00,68.1,64.1,29.69,ESE,110,2.1,7.3,87,0.00,,,0.00,WUHU216DAVISVP2,2013-03-18 04:50:00,
2013-03-17 23:55:00,68.0,64.0,29.69,East,91,2.1,7.3,87,0.00,,,0.00,WUHU216DAVISVP2,2013-03-18 04:55:00,